This is the latest recevied weather packets stored in our database for station/object W5CDN. If no packets are shown the sender has not sent any weather packets the latest 10 day(s).
| Time | Temp. | Humidity | Pressure | Rain* | Wind** | Luminosity | Snow |
|---|---|---|---|---|---|---|---|
| 1787522490 | 40° C | 37% | 1011.3 hPa | 0 mm | - | - | - |
| 1787522190 | 40.56° C | 36% | 1011.4 hPa | 0 mm | - | - | - |
| 1787521890 | 39.44° C | 37% | 1011.6 hPa | 0 mm | - | - | - |
| 1787521590 | 40° C | 38% | 1011.6 hPa | 0 mm | - | - | - |
| 1787521290 | 40.56° C | 39% | 1011.6 hPa | 0 mm | - | - | - |
| 1787520990 | 39.44° C | 38% | 1011.5 hPa | 0 mm | - | - | - |
| 1787520690 | 38.89° C | 39% | 1011.7 hPa | 0 mm | - | - | - |
| 1787520390 | 40° C | 38% | 1011.8 hPa | 0 mm | - | - | - |
| 1787520090 | 39.44° C | 38% | 1011.8 hPa | 0 mm | - | - | - |
| 1787519790 | 38.89° C | 41% | 1011.9 hPa | 0 mm | - | - | - |
| 1787519490 | 38.89° C | 39% | 1011.9 hPa | 0 mm | - | - | - |
| 1787519190 | 38.89° C | 40% | 1011.9 hPa | 0 mm | - | - | - |
| 1787518890 | 39.44° C | 40% | 1011.9 hPa | 0 mm | - | - | - |
| 1787518590 | 38.89° C | 41% | 1012.1 hPa | 0 mm | - | - | - |
| 1787518290 | 38.89° C | 42% | 1012.1 hPa | 0 mm | - | - | - |
| 1787517990 | 38.89° C | 42% | 1012 hPa | 0 mm | - | - | - |
| 1787517690 | 38.89° C | 41% | 1012 hPa | 0 mm | - | - | - |
| 1787517390 | 38.33° C | 42% | 1012.4 hPa | 0 mm | - | - | - |
| 1787517090 | 38.33° C | 43% | 1012.4 hPa | 0 mm | - | - | - |
| 1787516790 | 38.33° C | 43% | 1012.6 hPa | 0 mm | - | - | - |
| 1787516490 | 38.33° C | 43% | 1012.6 hPa | 0 mm | - | - | - |
| 1787516190 | 38.89° C | 44% | 1012.6 hPa | 0 mm | - | - | - |
| 1787515890 | 38.89° C | 44% | 1012.7 hPa | 0 mm | - | - | - |
| 1787515590 | 38.33° C | 43% | 1012.9 hPa | 0 mm | - | - | - |
| 1787515290 | 38.33° C | 45% | 1012.9 hPa | 0 mm | - | - | - |
* Rain latest hour (hover to see other rain measurements)
** Current wind speed in m/s (hover to see current wind gust speed)